Weather History for Fort Bragg, NC

Change the Weather History Date:

Friday, February 15, 2013

  Actual Average Record
Temperature  
Mean Temperature 46 °F -  
Max Temperature 62 °F 56 °F 71 °F (2001)
Min Temperature 31 °F 35 °F 23 °F (2007)
Degree Days  
Heating Degree Days 18    
Moisture  
Dew Point 33 °F    
Average Humidity 78    
Maximum Humidity 100    
Minimum Humidity 29    
Precipitation  
Precipitation 0.00 in - - ()
Sea Level Pressure  
Sea Level Pressure 30.03 in    
Wind  
Wind Speed 1 mph (SSW)    
Max Wind Speed 5 mph    
Max Gust Speed -    
Visibility 8 miles    
Events Fog    
Averages and records for this station are not official NWS values.
T = Trace of Precipitation, MM = Missing Value Source: NWS Daily Summary

Daily Weather History Graph

Daily Weather History Graph

Search for Another Location

Airport:

Trip Planner

Search our weather history database for the weather conditions in past years. The results will help you decide how hot, cold, wet, or windy it might be!

Date:

Astronomy

Feb. 15, 2013 Rise Set
Actual Time 7:01 AM EST 5:58 PM EST
Civil Twilight 6:35 AM EST 6:24 PM EST
Nautical Twilight 6:06 AM EST 6:54 PM EST
Astronomical Twilight 5:36 AM EST 7:23 PM EST
Moon 9:51 AM EST (2/15) 11:41 PM EST (2/15)
Length of Visible Light 11h 48m
Length of Day
10h 56m
Waxing Crescent, 30% of the Moon is Illuminated
Feb 15
Waxing Crescent
Feb 17
First Quarter
Feb 25
Full
Mar 4
Last Quarter
Mar 11
New

Hourly Weather History & Observations

Time (EST) Temp. Windchill Dew Point Humidity Pressure Visibility Wind Dir Wind Speed Gust Speed Precip Events Conditions
12:55 AM 33.3 °F - 32.9 °F 99% 30.08 in 10.0 mi Calm Calm - N/A   Clear
1:55 AM 32.9 °F - 32.4 °F 98% 30.06 in 10.0 mi Calm Calm - N/A   Clear
2:55 AM 32.0 °F - 31.5 °F 98% 30.06 in 10.0 mi Calm Calm - N/A   Clear
3:37 AM 32.0 °F - 32.0 °F 100% 30.06 in 0.8 mi Calm Calm - N/A   Clear
3:38 AM 32.0 °F - 32.0 °F 100% 30.06 in 0.8 mi Calm Calm - N/A   Clear
3:55 AM 32.7 °F - 32.2 °F 98% 30.06 in 0.5 mi Calm Calm - N/A Fog Fog
4:00 AM 32.0 °F - 32.0 °F 100% 30.07 in 3.0 mi Calm Calm - N/A   Clear
4:55 AM 31.8 °F - 31.5 °F 99% 30.06 in 10.0 mi Calm Calm - N/A   Clear
5:11 AM 32.0 °F - 32.0 °F 100% 30.07 in 1.8 mi Calm Calm - N/A   Clear
5:23 AM 32.0 °F - 32.0 °F 100% 30.07 in 1.0 mi Calm Calm - N/A   Clear
5:26 AM 32.0 °F - 32.0 °F 100% 30.07 in 0.8 mi Calm Calm - N/A   Clear
5:34 AM 32.0 °F - 32.0 °F 100% 30.07 in 3.0 mi Calm Calm - N/A   Clear
5:55 AM 32.0 °F - 31.5 °F 98% 30.07 in 10.0 mi Calm Calm - N/A   Clear
6:55 AM 31.1 °F - 30.6 °F 98% 30.09 in 10.0 mi Calm Calm - N/A   Clear
7:55 AM 32.9 °F - 32.4 °F 98% 30.09 in 10.0 mi Calm Calm - N/A   Clear
8:55 AM 41.4 °F - 39.9 °F 95% 30.11 in 10.0 mi Calm Calm - N/A   Clear
9:55 AM 47.7 °F - 38.7 °F 71% 30.10 in 10.0 mi Calm Calm - N/A   Clear
2:47 PM 62.6 °F - 30.2 °F 30% 29.97 in 10.0 mi Variable 3.5 mph - N/A   Clear
2:54 PM 62.6 °F - 30.2 °F 30% 29.96 in 10.0 mi Variable 1.2 mph - N/A   Clear
2:55 PM 62.6 °F - 29.8 °F 29% 29.98 in 10.0 mi Calm Calm - N/A   Clear
3:55 PM 62.6 °F - 30.4 °F 30% 29.96 in 10.0 mi Calm Calm - N/A   Clear
4:55 PM 61.9 °F - 30.9 °F 31% 29.95 in 10.0 mi South 4.6 mph - N/A   Clear
5:55 PM 59.2 °F - 32.0 °F 36% 29.94 in 10.0 mi SSW 4.6 mph - N/A   Clear
6:55 PM 55.6 °F - 33.4 °F 43% 29.95 in 10.0 mi SW 3.5 mph - N/A   Clear
7:55 PM 47.3 °F - 39.6 °F 74% 29.96 in 10.0 mi Calm Calm - N/A   Clear
8:55 PM 43.7 °F - 38.7 °F 82% 29.96 in 10.0 mi Calm Calm - N/A   Clear
9:55 PM 42.1 °F - 38.5 °F 87% 29.96 in 10.0 mi Calm Calm - N/A   Clear
10:55 PM 46.8 °F - 36.3 °F 67% 29.96 in 10.0 mi SW 4.6 mph - N/A   Clear
11:55 PM 46.0 °F 44.8 °F 37.0 °F 71% 29.94 in 10.0 mi South 3.5 mph - N/A   Clear